When you browse on this site, cookies collect data to enhance your experience and personalize the content and advertising you see.
Visit our Privacy Policy to learn more. By continuing to use the site, you agree to this use of cookies and data.
  • In Portugal
  • List of Countries
  • For 7 days
  • Water Temperature
  • Satellite Maps
  • Weather Map
  • Weather Widgets
  • user-avatar
    Login

    Hourly Weather Bihać

    Today, 21 April, Sunday

    Time Temperature Precipitation Wind Pressure Humidity
    00:00 +7°C° 0 mm 2 mps 715 mmHg 62%
    01:00 +7°C° 0 mm 2 mps 715 mmHg 61%
    02:00 +6°C° 0 mm 2 mps 714 mmHg 60%
    03:00 +6°C° 0 mm 2 mps 714 mmHg 60%
    04:00 +7°C° 0 mm 1 mps 714 mmHg 59%
    05:00 +8°C° 0 mm 1 mps 714 mmHg 57%
    06:00 +9°C° 0 mm 1 mps 714 mmHg 55%
    07:00 +11°C° 0 mm 1 mps 714 mmHg 54%
    08:00 +13°C° 0 mm 1 mps 715 mmHg 48%
    09:00 +15°C° 0 mm 1 mps 715 mmHg 43%
    10:00 +18°C° 0 mm 1 mps 715 mmHg 38%
    11:00 +18°C° 0 mm 2 mps 715 mmHg 38%
    12:00 +19°C° 0 mm 2 mps 715 mmHg 39%
    13:00 +19°C° 0 mm 2 mps 714 mmHg 39%
    14:00 +19°C° 0 mm 2 mps 714 mmHg 44%
    15:00 +18°C° 0 mm 2 mps 714 mmHg 49%
    16:00 +18°C° 0 mm 3 mps 713 mmHg 53%
    17:00 +16°C° 0 mm 2 mps 713 mmHg 65%
    18:00 +14°C° 0 mm 2 mps 712 mmHg 76%
    19:00 +12°C° 0 mm 1 mps 712 mmHg 87%
    20:00 +11°C° 0 mm 1 mps 712 mmHg 89%
    21:00 +11°C° 0 mm 1 mps 712 mmHg 90%
    22:00 +10°C° 0 mm 1 mps 712 mmHg 91%
    23:00 +10°C° 0 mm 1 mps 712 mmHg 90%

    Tomorrow, 22 April, Monday

    Time Temperature Precipitation Wind Pressure Humidity
    00:00 +10°C° 0 mm 1 mps 711 mmHg 88%
    01:00 +10°C° 0 mm 1 mps 711 mmHg 87%
    02:00 +8°C° 0 mm 2 mps 711 mmHg 87%
    03:00 +8°C° 0 mm 2 mps 710 mmHg 88%
    04:00 +7°C° 0 mm 2 mps 710 mmHg 88%
    05:00 +8°C° 0 mm 2 mps 710 mmHg 84%
    06:00 +9°C° 0 mm 3 mps 710 mmHg 81%
    07:00 +10°C° 0 mm 3 mps 709 mmHg 77%
    08:00 +12°C° 0 mm 3 mps 709 mmHg 70%
    09:00 +13°C° 0 mm 4 mps 709 mmHg 64%
    10:00 +15°C° 0 mm 4 mps 709 mmHg 57%
    11:00 +17°C° 0 mm 4 mps 709 mmHg 56%
    12:00 +16°C° 0 mm 5 mps 708 mmHg 55%
    13:00 +17°C° 0 mm 5 mps 708 mmHg 54%
    14:00 +16°C° 0 mm 5 mps 707 mmHg 55%
    15:00 +16°C° 0 mm 6 mps 706 mmHg 57%
    16:00 +16°C° 0 mm 6 mps 706 mmHg 59%
    17:00 +14°C° 0 mm 5 mps 705 mmHg 65%
    18:00 +13°C° 0 mm 5 mps 705 mmHg 71%
    19:00 +11°C° 0 mm 4 mps 705 mmHg 76%
    20:00 +11°C° 0.1 mm 4 mps 705 mmHg 80%
    21:00 +10°C° 0.1 mm 5 mps 705 mmHg 83%
    22:00 +9°C° 0.1 mm 5 mps 705 mmHg 87%
    23:00 +9°C° 1.3 mm 5 mps 704 mmHg 88%

    Day after tomorrow, 23 April, Tuesday

    Time Temperature Precipitation Wind Pressure Humidity
    00:00 +9°C° 1.3 mm 5 mps 704 mmHg 90%
    01:00 +9°C° 1.3 mm 6 mps 703 mmHg 92%
    02:00 +9°C° 0.1 mm 6 mps 703 mmHg 92%
    03:00 +9°C° 0.1 mm 6 mps 702 mmHg 91%
    04:00 +9°C° 0.1 mm 6 mps 702 mmHg 91%
    05:00 +10°C° 0.1 mm 6 mps 702 mmHg 90%
    06:00 +10°C° 0.1 mm 6 mps 702 mmHg 90%
    07:00 +10°C° 0.1 mm 6 mps 702 mmHg 89%
    08:00 +11°C° 0.1 mm 6 mps 702 mmHg 88%
    09:00 +11°C° 0.1 mm 7 mps 702 mmHg 87%
    10:00 +12°C° 0.1 mm 7 mps 703 mmHg 86%
    11:00 +12°C° 0.3 mm 7 mps 703 mmHg 85%
    12:00 +12°C° 0.3 mm 7 mps 703 mmHg 85%
    13:00 +14°C° 0.3 mm 7 mps 703 mmHg 85%
    14:00 +14°C° 0.8 mm 7 mps 703 mmHg 84%
    15:00 +14°C° 0.8 mm 7 mps 703 mmHg 83%
    16:00 +15°C° 0.8 mm 7 mps 703 mmHg 81%
    17:00 +14°C° 1.2 mm 6 mps 703 mmHg 84%
    18:00 +13°C° 1.2 mm 5 mps 703 mmHg 86%
    19:00 +12°C° 1.2 mm 5 mps 703 mmHg 88%
    20:00 +12°C° 0.8 mm 4 mps 704 mmHg 90%
    21:00 +12°C° 0.8 mm 4 mps 704 mmHg 92%
    22:00 +11°C° 0.8 mm 3 mps 705 mmHg 94%
    23:00 +11°C° 0.3 mm 3 mps 705 mmHg 95%

    24 April, Wednesday

    Time Temperature Precipitation Wind Pressure Humidity
    00:00 +11°C° 0.3 mm 3 mps 706 mmHg 96%
    01:00 +11°C° 0.3 mm 3 mps 706 mmHg 96%
    02:00 +11°C° 0.1 mm 3 mps 706 mmHg 96%
    03:00 +11°C° 0.1 mm 4 mps 706 mmHg 96%
    04:00 +11°C° 0.1 mm 4 mps 707 mmHg 97%
    05:00 +11°C° 0.3 mm 4 mps 707 mmHg 96%
    06:00 +12°C° 0.3 mm 4 mps 708 mmHg 95%
    07:00 +12°C° 0.3 mm 4 mps 708 mmHg 94%
    08:00 +13°C° 0.2 mm 4 mps 709 mmHg 91%
    09:00 +14°C° 0.2 mm 4 mps 709 mmHg 88%
    10:00 +14°C° 0.2 mm 4 mps 710 mmHg 85%
    11:00 +15°C° 0.4 mm 4 mps 710 mmHg 83%
    12:00 +15°C° 0.4 mm 4 mps 710 mmHg 81%
    13:00 +17°C° 0.4 mm 4 mps 711 mmHg 78%
    14:00 +17°C° 0.1 mm 4 mps 711 mmHg 77%
    15:00 +18°C° 0.1 mm 4 mps 711 mmHg 75%
    16:00 +18°C° 0.1 mm 4 mps 711 mmHg 74%
    17:00 +17°C° 0 mm 4 mps 711 mmHg 79%
    18:00 +14°C° 0 mm 3 mps 711 mmHg 85%
    19:00 +13°C° 0 mm 3 mps 711 mmHg 91%
    20:00 +12°C° 0 mm 3 mps 711 mmHg 89%
    21:00 +12°C° 0 mm 3 mps 711 mmHg 88%
    22:00 +12°C° 0 mm 3 mps 712 mmHg 86%
    23:00 +11°C° 0 mm 3 mps 712 mmHg 84%

    25 April, Thursday

    Time Temperature Precipitation Wind Pressure Humidity
    00:00 +11°C° 0 mm 3 mps 712 mmHg 82%
    01:00 +11°C° 0 mm 3 mps 712 mmHg 80%
    02:00 +11°C° 0 mm 3 mps 712 mmHg 81%
    03:00 +12°C° 0 mm 2 mps 711 mmHg 82%
    04:00 +10°C° 0 mm 2 mps 711 mmHg 82%
    05:00 +13°C° 0 mm 2 mps 712 mmHg 80%
    06:00 +13°C° 0 mm 3 mps 712 mmHg 77%
    07:00 +14°C° 0 mm 3 mps 713 mmHg 75%
    08:00 +16°C° 0 mm 3 mps 713 mmHg 71%
    09:00 +18°C° 0 mm 4 mps 713 mmHg 67%
    10:00 +19°C° 0 mm 4 mps 714 mmHg 64%
    11:00 +20°C° 0 mm 4 mps 714 mmHg 62%
    12:00 +20°C° 0 mm 4 mps 713 mmHg 61%
    13:00 +21°C° 0 mm 5 mps 713 mmHg 60%
    14:00 +21°C° 0 mm 4 mps 713 mmHg 61%
    15:00 +20°C° 0 mm 4 mps 713 mmHg 62%
    16:00 +20°C° 0 mm 4 mps 712 mmHg 63%
    17:00 +18°C° 0 mm 3 mps 712 mmHg 70%
    18:00 +17°C° 0 mm 3 mps 712 mmHg 77%
    19:00 +15°C° 0 mm 2 mps 712 mmHg 84%
    20:00 +14°C° 0 mm 2 mps 712 mmHg 83%
    21:00 +14°C° 0 mm 2 mps 712 mmHg 82%
    22:00 +14°C° 0 mm 2 mps 712 mmHg 81%
    23:00 +13°C° 0 mm 2 mps 711 mmHg 79%

    26 April, Friday

    Time Temperature Precipitation Wind Pressure Humidity
    00:00 +12°C° 0 mm 3 mps 711 mmHg 77%
    01:00 +12°C° 0 mm 3 mps 711 mmHg 75%
    02:00 +12°C° 0 mm 3 mps 710 mmHg 74%
    03:00 +12°C° 0 mm 3 mps 710 mmHg 73%
    04:00 +12°C° 0 mm 3 mps 710 mmHg 72%
    05:00 +13°C° 0 mm 3 mps 710 mmHg 70%
    06:00 +14°C° 0 mm 3 mps 710 mmHg 69%
    07:00 +16°C° 0 mm 3 mps 710 mmHg 68%
    08:00 +17°C° 0 mm 4 mps 710 mmHg 67%
    09:00 +18°C° 0 mm 4 mps 710 mmHg 65%
    10:00 +19°C° 0 mm 4 mps 711 mmHg 63%
    11:00 +20°C° 0.1 mm 5 mps 710 mmHg 63%
    12:00 +20°C° 0.1 mm 5 mps 710 mmHg 62%
    13:00 +20°C° 0.1 mm 5 mps 710 mmHg 62%
    14:00 +20°C° 0.1 mm 5 mps 709 mmHg 62%
    15:00 +19°C° 0.1 mm 4 mps 709 mmHg 62%
    16:00 +19°C° 0.1 mm 4 mps 708 mmHg 63%
    17:00 +17°C° 0 mm 3 mps 708 mmHg 70%
    18:00 +16°C° 0 mm 3 mps 708 mmHg 78%
    19:00 +14°C° 0 mm 2 mps 708 mmHg 86%
    20:00 +14°C° 0.1 mm 2 mps 709 mmHg 87%
    21:00 +13°C° 0.1 mm 2 mps 709 mmHg 89%
    22:00 +13°C° 0.1 mm 1 mps 710 mmHg 90%
    23:00 +12°C° 0.1 mm 1 mps 710 mmHg 90%
    Show more